Simultaneous Nadir Overpasses (SNOs) Predictions

Prediction of SNOs between GOES-15 and LANDSAT-8 Satellite Orbit:

Table of predicted SNOs for the next 14.0 days since TLE Epoch: 3/4/2023
Index Date Time (GOES-15) GOES-15 Lat,Lon LANDSAT-8 Lat,Lon Distance(km) Time Diff (sec)
1 03/04/2023 06:30:17 0.06,-127.95 0.84,-124.27 419.01 80
2 03/04/2023 18:48:52 -0.07,-127.92 0.28,-129.42 170.98 80
3 03/06/2023 18:39:20 -0.07,-127.87 -0.40,-126.47 159.85 80
4 03/07/2023 06:58:03 0.08,-127.87 -0.75,-131.65 430.50 80
5 03/08/2023 18:27:06 -0.06,-127.82 -0.98,-123.50 490.54 80
6 03/09/2023 06:45:50 0.07,-127.82 -0.10,-128.70 99.75 80
7 03/11/2023 06:36:16 0.07,-127.76 0.51,-125.73 230.54 80
8 03/11/2023 18:54:51 -0.08,-127.73 0.57,-130.89 359.17 80
9 03/13/2023 18:42:36 -0.09,-127.66 -0.02,-127.92 29.94 80
10 03/15/2023 18:33:01 -0.09,-127.58 -0.64,-124.95 298.62 80
11 03/16/2023 06:51:44 0.10,-127.57 -0.42,-130.15 292.78 80
